Regional Weather Roundup
Issued by NWS

Home | Current Version | Previous Version | Text Only | Print | Product List | Glossary Off
Versions: 1 2 3 4 5 6 7 8 9 10 11 12 13 14 15 16 17 18 19 20 21 22 23 24 25 26 27 28 29 30 31 32 33 34 35 36 37 38 39 40 41 42 43 44 45 46 47 48 49 50

000
ASUS43 KFSD 121010
RWRSD

WEATHER ROUNDUP FOR SOUTH DAKOTA
NATIONAL WEATHER SERVICE SIOUX FALLS SD
400 AM CST FRI FEB 12 2016

NOTE: "FAIR" INDICATES FEW OR NO CLOUDS BELOW 12,000 FEET WITH NO
SIGNIFICANT WEATHER AND/OR OBSTRUCTIONS TO VISIBILITY.


SDZ001>005-009-010-012>017-121100-
NORTHWEST AND NORTH CENTRAL SOUTH DAKOTA

CITY           SKY/WX    TMP DP  RH WIND       PRES   REMARKS
BUFFALO          N/A     28  22  78 N12       30.23R WCI  18
FAITH            N/A     24  19  81 NE10      30.31R WCI  14
MOBRIDGE       CLOUDY    21  16  81 MISG      30.34R
$$

SDZ012>016-024>037-041>051-057-063-072>074-121100-
SOUTHWEST AND SOUTH CENTRAL SOUTH DAKOTA

CITY           SKY/WX    TMP DP  RH WIND       PRES   REMARKS
RAPID CTY ARPT CLOUDY    31  28  89 NW3       30.28R
PIERRE         CLOUDY    22  17  81 N12       30.35R WCI  10
CUSTER         CLEAR     32  23  69 NW7       30.20R WCI  26
ELLSWORTH AFB  CLOUDY    31  28  91 N6        30.28  WCI  25
PHILIP         CLOUDY    28  23  81 N8        30.33R WCI  20
PINE RIDGE     CLOUDY    33  29  85 NW3       30.27R
SPEARFISH      CLOUDY    28  28 100 W8        30.29R WCI  20
WINNER         CLOUDY    29  25  85 N13       30.31R WCI  19
$$

SDZ004>011-016>023-039-040-121100-
NORTHEAST SOUTH DAKOTA

CITY           SKY/WX    TMP DP  RH WIND       PRES   REMARKS
ABERDEEN       CLOUDY    15   8  73 N14       30.38R WCI   0
WATERTOWN      CLOUDY    10   5  80 NW9       30.30R WCI  -3
BROOKINGS      CLOUDY    12   8  84 N15       30.29R WCI  -4
SISSETON         N/A     10   7  87 N13       30.36R WCI  -5
$$

SDZ017-020-022-023-036>040-048>070-121100-
SOUTHEAST SOUTH DAKOTA

CITY           SKY/WX    TMP DP  RH WIND       PRES   REMARKS
SIOUX FALLS    CLOUDY    19  13  77 N13       30.30R WCI   6
HURON          CLOUDY    15  10  80 N14       30.37R WCI   0
CHAMBERLAIN    CLOUDY    20  19  95 N10       30.34R WCI   9
MITCHELL       CLOUDY    19  14  81 N15       30.36R WCI   5
YANKTON        CLOUDY    21  16  79 NW10      30.32R WCI  10
$$

ABBREVIATIONS USED IN REMARKS
   TC - TEMPERATURE IN CELSIUS
  WCI - WIND CHILL INDEX
   HX - HEAT INDEX
  VSB - VISIBILITY




USA.gov is the U.S. government's official web portal to all federal, state and local government web resources and services.